Regional Weather Roundup
Issued by NWS Sioux Falls, SD

Home | Current Version | Previous Version | Text Only | Print | Product List | Glossary On
Versions: 1 2 3 4 5 6 7 8 9 10 11 12 13 14 15 16 17 18 19 20 21 22 23 24 25 26 27 28 29 30 31 32 33 34 35 36 37 38 39 40 41 42 43 44 45 46 47 48 49 50
000
ASUS43 KFSD 240210
RWRFSD

WEATHER ROUNDUP FOR SE SOUTH DAKOTA/SW MINNESOTA/NW IOWA
NATIONAL WEATHER SERVICE SIOUX FALLS SD
900 PM CDT SUN JUL 23 2017

NOTE: "FAIR" INDICATES FEW OR NO CLOUDS BELOW 12,000 FEET WITH NO
SIGNIFICANT WEATHER AND OR OBSTRUCTIONS TO VISIBILITY.


SDZ038>040-050-052>070-240300-
SOUTHEAST SOUTH DAKOTA

CITY           SKY/WX    TMP DP  RH WIND       PRES   REMARKS
BROOKINGS      CLEAR     70  59  68 E9        30.02R
CHAMBERLAIN    CLEAR     80  57  45 E6        29.98S
HURON          CLEAR     74  62  66 CALM      29.98S
MADISON        FAIR      66  66 100 E5        30.02R
MITCHELL       CLEAR     74  61  63 E3        29.99R
SIOUX FALLS    PTCLDY    72  62  71 NE10      30.00R
WINNER         FAIR      81  53  37 E9        29.98S
YANKTON        CLEAR     74  61  63 NE7       29.98S
$$

MNZ071-072-080-081-089-090-097-098-240300-
SOUTHWEST MINNESOTA

CITY           SKY/WX    TMP DP  RH WIND       PRES   REMARKS
FAIRMONT       CLEAR     67  63  87 N5        29.99R
JACKSON        CLEAR     64  61  88 CALM      30.00S
LUVERNE        CLEAR     66  57  72 NE5       30.01R
MARSHALL       CLEAR     69  63  81 NW5       30.00S
MONTEVIDEO     CLEAR     70  57  64 CALM      30.00R
PIPESTONE      CLEAR     70  59  68 NE5       30.02S
REDWOOD FALLS  CLEAR     72  59  63 N3        29.98R
WINDOM         CLEAR     66  61  82 CALM      30.00S
WORTHINGTON    CLEAR     66  60  81 N5        30.01S
$$

IAZ001>003-012>014-020>022-031-032-NEZ013-014-SDZ071-240300-
NORTHWEST IOWA

CITY           SKY/WX    TMP DP  RH WIND       PRES   REMARKS
CHEROKEE       CLEAR     70  59  68 NE5       29.98S
DENISON        CLEAR     73  63  68 NE7       29.97S
ESTHERVILLE    CLEAR     65  62  90 N5        29.98S
ORANGE CITY    CLEAR     72  61  68 NE3       29.99S
SHELDON          N/A     66  63  88 NE5       29.98S
SIOUX CITY     CLEAR     77  61  57 NE7       29.96S
SPENCER        CLEAR     68  59  73 N7        29.99S
STORM LAKE     CLEAR     70  59  68 NE12      29.98S
$$

ABBREVIATIONS USED IN REMARKS
   TC - TEMPERATURE IN CELSIUS
  WCI - WIND CHILL INDEX
   HX - HEAT INDEX
  VSB - VISIBILITY





USA.gov is the U.S. government's official web portal to all federal, state and local government web resources and services.